Location: Unspecified
(0.0000°N, 0.0000°E)
Time: 06:21:27
(UTC+02:00)

Delta 168 - Visible Passes

Search period start: 05 August 2015 00:00
Search period end: 15 August 2015 00:00
Orbit: 395 x 2087 km, 25.3° (Epoch: 04 August)

Date Brightness Start Highest point End Pass type
(mag) Time Alt. Az. Time Alt. Az. Time Alt. Az.
05 Aug 6.4 05:10:54 32° SSE 05:10:54 32° SSE 05:18:06 10° SE visible
05 Aug 6.6 07:01:09 15° SW 07:08:01 22° SSW 07:16:34 10° SSE visible
06 Aug 6.6 05:04:02 27° SSE 05:04:02 27° SSE 05:10:12 10° SE visible
06 Aug 6.7 06:54:16 15° SW 07:00:36 21° S 07:09:04 10° SSE visible
07 Aug 6.8 04:57:04 23° SSE 04:57:04 23° SSE 05:02:16 10° SE visible
07 Aug 6.7 06:47:18 15° SW 06:53:11 21° S 07:01:35 10° SE visible
08 Aug 6.9 04:50:02 20° SSE 04:50:02 20° SSE 04:54:17 10° SE visible
08 Aug 6.8 06:40:16 15° SW 06:45:46 20° S 06:54:07 10° SE visible
09 Aug 7.0 04:42:57 17° SSE 04:42:57 17° SSE 04:46:16 10° SE visible
09 Aug 6.8 06:33:11 16° SSW 06:38:22 20° S 06:46:40 10° SE visible
10 Aug 7.2 04:35:50 15° SSE 04:35:50 15° SSE 04:38:14 10° SE visible
10 Aug 6.8 06:26:03 16° SSW 06:30:57 19° S 06:39:14 10° SE visible
10 Aug 5.8 22:21:18 10° NNW 22:21:30 11° NNW 22:21:30 11° NNW visible
11 Aug 7.3 04:28:40 13° SSE 04:28:40 13° SSE 04:30:11 10° SE visible
11 Aug 6.8 06:18:54 16° SSW 06:23:32 19° S 06:31:51 10° SE visible
11 Aug 5.6 22:13:55 10° NNW 22:14:26 13° NNW 22:14:26 13° NNW visible
12 Aug 7.3 04:21:30 11° SSE 04:21:30 11° SSE 04:22:07 10° SE visible
12 Aug 6.8 06:11:43 16° SSW 06:16:06 19° S 06:24:29 10° SE visible
12 Aug 5.3 22:06:33 10° NNW 22:07:25 15° NNW 22:07:25 15° NNW visible
13 Aug 6.8 06:04:33 17° SSW 06:08:38 20° S 06:17:09 10° SE visible
13 Aug 5.0 21:59:12 10° NNW 22:00:26 18° NNW 22:00:26 18° NNW visible
14 Aug 6.8 05:57:22 17° SSW 06:01:10 20° S 06:09:48 10° SE visible
14 Aug 4.5 21:51:51 10° NW 21:53:29 24° NNW 21:53:29 24° NNW visible
